Home   Weather   Prince Albert   Past weeks

Flag for Canada Past Weather in Prince Albert, Saskatchewan, Canada — Yesterday and Last 2 Weeks

Now
73 °F

Scattered clouds.


Feels Like: 77 °F
Forecast: 49 / 76 °F
Wind: 6 mph from North

Location: Prince Albert

Current Time: Jul 22, 2017 at 4:58:32 pm

Latest Report: Jul 22, 2017 at 4:00 pm


Visibility: 15 mi

Pressure: 30.02 "Hg

Humidity: 47%

Dew Point: 52 °F

Location of Prince AlbertLocation

Past Weather in Prince Albert — Graph

°F

Prince Albert Temperature Yesterday

Maximum temperature yesterday: 64 °F (at 10:00 am)
Minimum temperature yesterday: 57 °F (at 11:40 pm)
Average temperature yesterday: 60 °F

High & Low Weather Summary for the Past Weeks

 TemperatureHumidityPressure
High90 °F (Jul 16, 3:00 pm)100% (Jul 9, 6:00 am)30.25 "Hg (Jul 9, 6:00 am)
Low48 °F (Jul 12, 3:00 am)33% (Jul 16, 3:00 pm)29.48 "Hg (Jul 16, 4:00 pm)
Average65 °F74%29.97 "Hg
* Reported Jul 7 3:00 pm — Jul 22 3:00 pm, Prince Albert. Weather by CustomWeather, © 2017

Note: Actual official high and low records may vary slightly from our data, if they occured in-between our weather recording intervals... More about our weather records

Advertising

Prince Albert Weather History for the Previous 24 Hours

Scroll right to see more
 ConditionsComfort  
Time TempWeatherWind HumidityBarometerVisibility
3:00 pm
Sat, Jul 22
73 °FScattered clouds.2 mph44%30.03 "Hg15 mi
2:00 pm72 °FPassing clouds.2 mph44%30.03 "Hg15 mi
1:00 pm70 °FPassing clouds.6 mph53%30.03 "Hg15 mi
12:00 pm70 °FPassing clouds.No wind53%30.03 "Hg15 mi
11:00 am66 °FPassing clouds.3 mph60%30.03 "Hg15 mi
10:00 am64 °FPassing clouds.No wind64%30.04 "Hg15 mi
9:00 am63 °FPassing clouds.2 mph77%30.04 "Hg15 mi
8:00 am59 °FBroken clouds.3 mph88%30.03 "Hg15 mi
7:37 am57 °FBroken clouds.3 mph94%30.02 "Hg15 mi
7:00 am55 °FPartly sunny.No wind100%30.01 "Hg15 mi
6:36 am55 °FMostly cloudy.5 mph100%30.01 "Hg10 mi
6:00 am55 °FMostly cloudy.5 mph94%30.01 "Hg15 mi
5:00 am57 °FLow clouds.2 mph94%29.99 "Hg15 mi
4:00 am57 °FLow clouds.7 mph94%29.97 "Hg15 mi
3:00 am55 °FMostly cloudy.5 mph100%29.96 "Hg15 mi
2:38 am55 °FMostly cloudy.3 mph100%29.95 "Hg15 mi
2:00 am57 °FLight rain. Mostly cloudy.5 mph94%29.94 "Hg15 mi
1:00 am57 °FLight rain. Passing clouds.6 mph94%29.93 "Hg15 mi
12:00 am59 °FLow clouds.5 mph94%29.92 "Hg15 mi
11:40 pm
Fri, Jul 21
57 °FLight rain. Mostly cloudy.5 mph100%29.92 "Hg15 mi
10:00 pm59 °FMostly cloudy.3 mph94%29.91 "Hg15 mi
9:00 pm59 °FMostly cloudy.5 mph94%29.90 "Hg15 mi
8:00 pm61 °FSprinkles. Mostly cloudy.3 mph94%29.88 "Hg12 mi
7:00 pm61 °FSprinkles. Mostly cloudy.3 mph94%29.90 "Hg12 mi
6:00 pm61 °FSprinkles. More clouds than sun.7 mph100%29.89 "Hg12 mi
5:38 pm61 °FSprinkles. More clouds than sun.5 mph94%29.88 "Hg12 mi
4:28 pm63 °FSprinkles. More clouds than sun.2 mph88%29.87 "Hg12 mi
4:00 pm61 °FThunderstorms. Mostly cloudy.15 mph94%29.85 "Hg12 mi
Weather by CustomWeather, © 2017

See weather overviewHow to use our weather pages